Showing default

HJS-6C, 63430

Orbit data source: Space-Track

HJS-6C, 63430 is a payload satellite owned by Zhongguo Xingwang (CN) in LEO that was launched on Tue, 01 Apr 2025 UTC via a CHANG ZHENG 2D launch vehicle from the Jiuquan Satellite Launch Center, China (JSC). Payload-class satellites include a variety of spacecraft equipped with specific instruments for various scientific and technological missions. These include communications satellites like Starlink; space stations such as the ISS; scientific satellites like the Hubble; Earth observation satellites from companies like Planet Labs, Umbra, and HawkEye 360; GPS; miniature CubeSats for education and research; and military/defense satellites.

Loading next visibility...
Identifier
63430, 2025-067C
Orbit
LEO
Country
Flag of CNCN / PRC
Related business
Manufacturer
Changguang WJ
Mission
Operational Civil Communications
Bus & Motor
Unknown
Mass
~300 kg wet, ~300 kg dry
Launch date (UTC)
2025-04-01 (10 months ago)
Launch vehicle
CHANG ZHENG 2D
Launch site
Jiuquan Satellite Launch Center, China (JSC)
Object type
Payload
Rocket body
Debris
Shape & HBR
Box + 2 Pan, 1.1 m
Radar Cross Section
2.320 m², Large (>1 m²)

Expand to show TLE details & history
Last TLE update: 7 hours ago

TLE from 7 hours ago
0 HJS-6C
1 63430U 25067C   26034.23440026  .00007165  00000-0  20113-3 0  9991
2 63430  54.9919 264.4034 0007554  12.9603 347.1617 15.37672471 47407
Epoch: 2026-02-03T05:37Z
TLE epoch observation values (Epoch: 2026-02-03T05:37:32.182Z)
Latitude
-0.00005°
Longitude
46.60102°
Altitude
449.061 km
Speed
7.647 km/s
True Right ascension
17h 37m 36s
True Declination
0° 00' 00"
Sunlit
Object was in daylight at epoch
Visualization orbit readout
Latitude
Unknown
Longitude
Unknown
Altitude
Unknown
Speed
Unknown
Apparent Right ascension
Unknown
Apparent Declination
Unknown
Sunlit
N/A
Visualization observer readout
Local Sidereal Time
14:03:39
Azimuth
Unknown
Elevation
Unknown
Doppler factor
Unknown
Orbital elements
Apogee altitude
458.118 km
Perigee altitude
447.797 km
Semi-major axis
6,831.094 km
Eccentricity
0.00076
Inclination
54.9919°
RAAN
264.4034°
Arg. of periapsis
12.9603°
True anomaly
347.14245°
Mean anomaly
347.1617°
Eccentric anomaly
347.15208°
Mean motion
3.84422 °/min
Orbital period
93.65 mins
BSTAR
0.00020113
Loading maneuver chart data...
Computing Atmospheric mass density...
Loading historical data...
Loading historical data...
Loading historical data...
Loading historical data...
Loading historical data...
Loading historical data...
Loading historical data...
Other satellites on launch #67 in the year 2025 (2025-04-01 UTC)

Documentation

Showing up to 5 results
|